Location: Unspecified
(43.4680°N, 87.1740°E)
Time: 08:00:41
(UTC+00:00)

NOSS 0 Rocket - Pass Details

Date: 04 August 2021
Orbit: 936 x 954 km, 70.0° (Epoch: 18 September)

Event Time Altitude Azimuth Distance (km) Brightness Sun altitude
Rises 15:59:31 0° 337° (NNW) 3,636 8.4 -21.7°
Reaches altitude 10° 16:02:11 10° 343° (NNW) 2,685 7.3 -22.0°
Maximum altitude 16:08:11 47° 57° (ENE) 1,242 4.5 -22.6°
Enters shadow 16:10:08 36° 102° (ESE) 1,465 4.6 -22.8°
